Flag for Ireland Weather past 2 weeks in Limerick, Ireland

Now
46 °F

Partly sunny.


Feels Like: 43 °F
Forecast: 45 / 54 °F
Wind: 7 mph from South

Location: Shannon Airport

Current Time: May 27, 2015 at 7:26:29 AM

Latest Report: May 27, 2015 at 7:00 AM


Visibility: N/A

Pressure: 30.30 "Hg

Humidity: 87%

Dew point: 43 °F

Location of LimerickLocation

Historic Weather in Limerick — Graph

°F

Limerick temperature yesterday

Maximum temperature yesterday: 61 °F (at 12:30 PM)
Minimum temperature yesterday: 46 °F (at 10:30 PM)
Average temperature yesterday: 54 °F

Past Weeks' High & Low Weather Summary

 TemperatureHumidityPressure
High64 °F (May 23, 3:30 PM)100% (May 15, 4:30 PM)30.42 "Hg (May 15, 4:30 PM)
Low39 °F (May 13, 2:30 AM)36% (May 13, 7:00 PM)29.59 "Hg (May 14, 4:30 AM)
Average52 °F79%30.13 "Hg
* Reported May 12 6:00 AM — May 27 6:30 AM, Limerick, Weather by CustomWeather, © 2015

Note: Actual official high and low records may vary slightly from our data, if they occured in-between our weather recording intervals... More about our weather records

Advertising

Limerick weather history for previous 24 hours

 ConditionsComfort  
Time TempWeatherWind HumidityBarometerVisibility
6:30 AM
Wed, May 27
48 °FPartly sunny.6 mph82%30.30 "HgN/A
6:00 AM48 °FPassing clouds.5 mph76%30.30 "HgN/A
5:30 AM48 °FPassing clouds.5 mph76%30.33 "HgN/A
5:00 AM46 °FPassing clouds.5 mph76%30.33 "HgN/A
4:30 AM46 °FPassing clouds.3 mph76%30.33 "HgN/A
4:00 AM46 °FPassing clouds.3 mph76%30.36 "HgN/A
3:30 AM45 °FPassing clouds.5 mph87%30.36 "HgN/A
3:00 AM45 °FPassing clouds.5 mph87%30.39 "HgN/A
2:30 AM45 °FPassing clouds.3 mph87%30.39 "HgN/A
2:00 AM45 °FPassing clouds.7 mph87%30.39 "HgN/A
1:30 AM45 °FPassing clouds.3 mph87%30.39 "HgN/A
1:00 AM45 °FPassing clouds.3 mph87%30.39 "HgN/A
12:30 AM45 °FPassing clouds.2 mph87%30.42 "HgN/A
12:00 AM45 °FPassing clouds.5 mph87%30.42 "HgN/A
11:30 PM
Tue, May 26
46 °FPassing clouds.6 mph82%30.42 "HgN/A
11:00 PM46 °FPassing clouds.7 mph87%30.42 "HgN/A
10:30 PM46 °FPassing clouds.7 mph87%30.42 "HgN/A
10:00 PM48 °FPassing clouds.8 mph82%30.42 "HgN/A
9:30 PM50 °FPassing clouds.9 mph76%30.42 "HgN/A
9:00 PM52 °FPassing clouds.13 mph72%30.42 "HgN/A
8:30 PM54 °FPassing clouds.13 mph67%30.42 "HgN/A
8:00 PM55 °FPassing clouds.13 mph67%30.42 "HgN/A
7:30 PM55 °FPassing clouds.14 mph67%30.42 "HgN/A
7:00 PM57 °FPassing clouds.15 mph63%30.42 "HgN/A
6:30 PM57 °FPassing clouds.15 mph67%30.42 "HgN/A
6:00 PM59 °FPassing clouds.14 mph63%30.42 "HgN/A
5:30 PM59 °FPassing clouds.16 mph63%30.42 "HgN/A
5:00 PM59 °FPassing clouds.16 mph63%30.39 "HgN/A
4:30 PM59 °FPassing clouds.16 mph68%30.39 "HgN/A
4:00 PM61 °FPassing clouds.13 mph59%30.39 "HgN/A
3:30 PM61 °FPassing clouds.13 mph68%30.39 "HgN/A
3:00 PM61 °FPassing clouds.12 mph63%30.39 "HgN/A
2:30 PM61 °FPassing clouds.13 mph68%30.39 "HgN/A
2:00 PM61 °FPassing clouds.14 mph68%30.39 "HgN/A
1:30 PM61 °FPassing clouds.13 mph63%30.39 "HgN/A
1:00 PM61 °FScattered clouds.12 mph68%30.39 "HgN/A
12:30 PM61 °FPassing clouds.10 mph63%30.39 "HgN/A
12:00 PM59 °FScattered clouds.10 mph72%30.39 "HgN/A
11:30 AM59 °FScattered clouds.8 mph68%30.39 "HgN/A
11:00 AM57 °FScattered clouds.6 mph77%30.39 "HgN/A
10:30 AM55 °FPartly sunny.7 mph82%30.36 "HgN/A
10:00 AM55 °FBroken clouds.8 mph82%30.36 "HgN/A
9:30 AM55 °FPartly sunny.8 mph82%30.36 "HgN/A
9:00 AM55 °FPartly sunny.7 mph82%30.36 "HgN/A
8:30 AM54 °FPartly sunny.8 mph88%30.36 "HgN/A
8:00 AM52 °FBroken clouds.8 mph94%30.33 "HgN/A
7:30 AM52 °FPartly sunny.9 mph94%30.33 "HgN/A
7:00 AM52 °FPartly sunny.6 mph94%30.33 "HgN/A
Weather by CustomWeather, © 2015

See weather overviewHow to use our weather pages